Вернуться в каталог

COSMOS 1275 DEB

АктивенPO
NORAD 12674·DEBRIS·🇷🇺 Russia

Запущен Jun 4, 1981 с Plesetsk Cosmodrome

Loading…

Ближайшие Пролёты (ближайшие 24 часа)

TLE

СвежийSource: Space-Track

Эпоха: Sep 14, 2026, 10:11 UTC

1 12674U 81053AE  26257.42472583  .00000437  00000-0  42292-3 0  9990
2 12674  82.9344 300.1247 0101762  94.1608 280.7259 13.75212014252091

Отслеживайте COSMOS 1275 DEB в реальном времени с AllMySat

Download on the App Store